Date,TemperatureHighF,TemperatureAvgF,TemperatureLowF,DewpointHighF,DewpointAvgF,DewpointLowF,HumidityHigh,HumidityAvg,HumidityLow,PressureMaxIn,PressureMinIn,WindSpeedMaxMPH,WindSpeedAvgMPH,GustSpeedMaxMPH,PrecipitationSumIn
2013-1-1,37,35,31,28,25,16,81,66,41,0.00,40.00,18,11,40,0.05
2013-1-2,38,37,36,22,20,19,55,51,48,0.00,40.00,17,12,37,0.01
2013-1-3,38,35,31,23,21,17,69,58,48,0.00,40.00,17,7,41,0.00
2013-1-4,37,33,30,26,22,17,84,63,51,0.00,40.00,12,5,26,0.00
2013-1-5,38,32,29,25,23,19,77,69,52,0.00,40.00,6,3,18,0.00
2013-1-6,37,32,29,27,25,20,83,75,55,0.00,40.00,13,4,29,0.00
2013-1-7,36,31,28,23,21,16,79,65,50,0.00,40.00,10,4,34,0.00
2013-1-8,33,27,23,26,19,15,90,74,56,0.00,40.00,6,3,9,0.00
2013-1-9,28,23,21,19,16,13,89,77,58,0.00,40.00,6,2,26,0.00
2013-1-10,28,23,20,22,20,16,93,86,59,0.00,40.00,5,3,26,0.00
2013-1-11,35,30,24,26,21,14,88,68,52,0.00,40.00,7,4,20,0.00
2013-1-12,40,37,30,32,28,24,81,71,54,0.00,40.00,21,12,48,0.91
2013-1-13,42,40,37,35,31,28,87,71,59,0.00,40.00,23,14,49,1.17
2013-1-14,44,40,33,33,28,13,76,62,42,0.00,40.00,24,16,43,0.77
2013-1-15,31,27,24,13,4,-1,48,37,29,0.00,40.00,14,6,25,0.01
2013-1-16,27,23,17,20,15,4,90,75,38,0.00,40.00,4,3,10,0.00
2013-1-17,17,15,11,14,11,4,89,83,73,0.00,40.00,5,3,11,0.00
2013-1-18,16,12,10,10,5,2,84,74,65,0.00,40.00,4,2,8,0.00
2013-1-19,29,22,14,22,16,10,85,78,72,0.00,40.00,6,4,20,0.00
2013-1-20,36,31,19,31,26,14,94,81,62,0.00,40.00,13,6,34,0.08
2013-1-21,45,36,32,31,27,23,85,70,56,0.00,40.00,5,3,10,0.11
2013-1-22,39,36,33,29,27,24,75,70,66,0.00,40.00,4,2,10,0.04
2013-1-23,40,36,33,31,28,26,77,72,58,0.00,40.00,6,2,10,0.00
2013-1-24,39,36,34,29,23,19,79,60,46,0.00,40.00,13,6,26,0.00
2013-1-25,35,16,0,24,7,-12,91,67,53,0.00,40.00,13,6,21,0.00
2013-1-26,5,-2,-6,-9,-14,-18,68,55,45,0.00,40.00,6,3,10,0.00
2013-1-27,-2,-6,-10,-14,-18,-22,71,57,44,0.00,40.00,6,4,13,0.00
2013-1-28,4,-3,-11,-1,-13,-21,80,61,42,0.00,40.00,5,2,11,0.00
2013-1-29,22,10,1,16,5,-4,90,81,77,0.00,40.00,8,4,20,0.00
2013-1-30,39,29,22,27,22,16,88,73,59,0.00,40.00,15,8,42,0.15
2013-1-31,33,30,26,32,29,25,96,95,94,0.00,40.00,4,2,6,0.10
2013-2-1,37,32,26,29,26,22,95,81,69,0.00,40.00,6,3,12,0.01
2013-2-2,40,34,28,32,27,22,84,75,63,0.00,40.00,9,5,21,0.01
2013-2-3,38,34,32,29,27,22,82,76,60,0.00,40.00,10,3,19,0.00
2013-2-4,40,37,35,26,22,18,67,53,43,0.00,40.00,13,10,30,0.00
2013-2-5,37,31,25,23,20,15,83,63,51,0.00,40.00,4,2,15,0.00
2013-2-6,26,25,23,24,21,15,94,87,63,0.00,40.00,7,2,12,0.00
2013-2-7,34,27,21,23,20,19,93,77,54,0.00,40.00,20,7,39,0.00
2013-2-8,36,30,27,29,25,20,95,81,55,0.00,40.00,10,5,28,0.05
2013-2-9,42,35,26,28,23,19,89,62,48,0.00,40.00,14,8,35,0.11
2013-2-10,40,35,28,30,25,21,95,69,52,0.00,40.00,16,10,32,0.01
2013-2-11,27,22,17,26,17,12,94,82,65,0.00,40.00,10,5,19,0.11
2013-2-12,29,25,21,21,18,14,86,74,63,0.00,40.00,7,4,17,0.01
2013-2-13,35,30,24,24,20,15,94,69,45,0.00,40.00,14,5,37,0.08
2013-2-14,35,30,26,24,20,19,79,66,52,0.00,40.00,13,7,39,0.08
2013-2-15,28,24,20,26,21,15,92,89,85,0.00,40.00,7,5,16,0.00
2013-2-16,26,19,14,17,11,7,88,73,52,0.00,40.00,9,5,22,0.07
2013-2-17,23,18,14,19,15,10,91,87,80,0.00,40.00,8,6,19,0.03
2013-2-18,20,11,7,10,5,1,86,76,60,0.00,40.00,7,4,14,0.08
2013-2-19,22,12,8,20,6,3,92,78,70,0.00,40.00,8,3,14,0.04
2013-2-20,31,22,13,25,18,9,90,83,75,0.00,40.00,7,4,13,0.01
2013-2-21,32,23,19,22,18,15,91,82,65,0.00,40.00,4,2,7,0.09
2013-2-22,25,20,16,20,14,5,93,78,62,0.00,40.00,10,6,21,0.08
2013-2-23,28,21,17,25,14,5,94,75,59,0.00,40.00,7,4,12,0.00
2013-2-24,34,29,22,23,21,17,94,71,55,0.00,40.00,11,5,22,0.02
2013-2-25,39,30,26,23,20,16,81,66,50,0.00,40.00,7,4,20,0.29
2013-2-26,41,32,27,25,21,16,84,63,43,0.00,40.00,13,3,25,0.04
2013-2-27,39,31,26,26,20,16,79,62,47,0.00,40.00,13,6,25,0.00
2013-2-28,36,30,25,28,23,17,91,75,60,0.00,40.00,7,3,13,0.00
2013-3-1,32,28,25,27,22,16,94,79,60,0.00,40.00,5,3,14,0.03
2013-3-2,38,29,24,31,23,17,95,80,61,0.00,40.00,4,3,16,0.01
2013-3-3,42,33,28,21,17,15,61,53,43,0.00,40.00,4,4,16,0.00
2013-3-4,43,36,31,22,20,18,61,52,43,0.00,40.00,10,4,24,0.00
2013-3-5,41,33,28,27,22,17,75,65,55,0.00,40.00,4,2,7,0.00
2013-3-6,38,31,28,24,22,19,77,67,57,0.00,40.00,4,2,8,0.00
2013-3-7,39,35,30,24,21,18,66,57,49,0.00,40.00,18,8,47,0.01
2013-3-8,45,39,36,23,20,14,59,48,38,0.00,40.00,24,11,52,0.01
2013-3-9,41,35,29,27,20,17,92,55,45,0.00,40.00,10,6,29,0.00
2013-3-10,32,28,25,27,25,20,93,88,61,0.00,40.00,6,4,13,0.03
2013-3-11,35,26,20,27,22,10,94,83,63,0.00,40.00,6,3,12,0.29
2013-3-12,34,23,16,14,10,7,74,57,42,0.00,40.00,7,3,10,0.01
2013-3-13,31,21,14,13,6,-1,76,54,34,0.00,40.00,8,3,15,0.01
2013-3-14,27,18,10,10,5,0,77,56,40,0.00,40.00,7,4,12,0.00
2013-3-15,30,23,16,15,9,1,84,56,29,0.00,40.00,5,3,9,0.00
2013-3-16,31,22,15,13,8,-1,72,54,39,0.00,40.00,4,3,9,0.00
2013-3-17,30,22,16,9,1,-4,55,39,30,0.00,40.00,6,3,10,0.00
2013-3-18,28,20,14,13,4,-4,66,49,38,0.00,40.00,4,3,9,0.00
2013-3-19,27,17,8,7,-1,-6,80,48,26,0.00,40.00,7,4,16,0.00
2013-3-20,22,13,5,-1,-5,-11,54,43,30,0.00,40.00,6,4,13,0.00
2013-3-21,29,19,11,8,1,-8,62,46,39,0.00,40.00,7,4,16,0.00
2013-3-22,32,28,22,21,14,6,68,56,46,0.00,40.00,22,12,37,0.00
2013-3-23,32,27,21,26,22,12,93,84,52,0.00,40.00,13,7,25,0.06
2013-3-24,25,21,17,20,18,14,92,86,79,0.00,40.00,6,2,11,0.01
2013-3-25,19,16,6,17,12,0,91,86,81,0.00,40.00,12,5,21,0.00
2013-3-26,20,9,2,12,2,-4,80,75,67,0.00,40.00,5,4,14,0.19
2013-3-27,22,11,5,12,4,-1,81,73,64,0.00,40.00,4,2,8,0.13
2013-3-28,31,26,22,19,17,15,89,70,55,0.00,40.00,15,7,39,0.09
2013-3-29,35,29,23,28,21,17,84,74,57,0.00,40.00,7,5,21,0.01
2013-3-30,42,34,30,31,27,23,86,73,62,0.00,40.00,4,2,13,0.00
2013-3-31,43,34,29,35,28,24,94,79,54,0.00,40.00,4,2,11,0.01
2013-4-1,39,32,27,29,24,17,94,72,48,0.00,40.00,5,2,8,0.05
2013-4-2,45,33,25,23,18,16,69,55,36,0.00,40.00,11,5,21,0.05
2013-4-3,44,37,31,25,19,16,58,49,37,0.00,40.00,11,4,21,0.00
2013-4-4,42,33,26,21,15,-2,77,49,24,0.00,40.00,5,3,12,0.00
2013-4-5,37,27,19,18,10,-2,69,50,28,0.00,40.00,5,2,9,0.00
2013-4-6,28,24,21,21,19,13,91,83,59,0.00,40.00,7,2,12,0.16
2013-4-7,25,19,15,18,9,1,88,65,37,0.00,40.00,9,6,21,0.05
2013-4-8,19,14,10,12,8,3,87,76,66,0.00,40.00,5,4,11,0.04
2013-4-9,28,16,9,11,8,4,86,70,43,0.00,40.00,5,4,10,0.36
2013-4-10,22,13,8,9,6,3,85,74,57,0.00,40.00,9,5,18,0.04
2013-4-11,26,17,6,8,3,-2,83,56,41,0.00,40.00,7,5,16,0.13
2013-4-12,30,16,4,6,-1,-6,70,49,29,0.00,40.00,7,4,17,0.09
2013-4-13,33,21,10,11,3,-3,62,46,29,0.00,40.00,5,4,11,0.00
2013-4-14,38,28,17,12,6,0,60,40,25,0.00,40.00,5,3,10,0.00
2013-4-15,41,30,22,12,6,2,53,36,22,0.00,40.00,5,3,11,0.00
2013-4-16,37,26,17,14,9,2,62,49,30,0.00,40.00,5,4,12,0.00
2013-4-17,35,24,15,18,8,0,58,49,40,0.00,40.00,6,4,12,0.00
2013-4-18,38,29,20,16,13,9,79,53,35,0.00,40.00,5,3,9,0.00
2013-4-19,43,32,20,17,12,8,74,46,31,0.00,40.00,5,3,9,0.00
2013-4-20,47,35,29,16,12,7,44,37,25,0.00,40.00,12,6,24,0.00
2013-4-21,42,36,31,25,18,11,71,48,38,0.00,40.00,12,6,23,0.00
2013-4-22,51,39,30,26,22,17,77,51,33,0.00,40.00,7,4,12,0.00
2013-4-23,39,36,32,35,28,18,96,76,45,0.00,40.00,6,4,14,0.02
2013-4-24,40,36,33,34,32,24,96,87,68,0.00,40.00,8,3,18,0.02
2013-4-25,42,34,26,28,13,-1,94,48,21,0.00,40.00,13,8,31,0.03
2013-4-26,39,30,20,15,7,-4,51,38,27,0.00,40.00,7,4,15,0.02
2013-4-27,42,32,22,13,10,7,59,40,24,0.00,40.00,9,5,22,0.00
2013-4-28,43,31,20,10,7,4,53,38,22,0.00,40.00,7,5,16,0.00
2013-4-29,42,34,26,16,11,5,48,40,30,0.00,40.00,7,4,12,0.00
2013-4-30,40,35,32,32,20,16,76,55,46,0.00,40.00,9,7,21,0.00
2013-5-1,44,37,29,23,20,16,68,51,38,0.00,40.00,6,3,17,0.00
2013-5-2,42,37,32,36,30,21,93,76,57,0.00,40.00,10,3,24,0.05
2013-5-3,49,40,33,32,29,26,92,64,49,0.00,40.00,17,8,38,0.02
2013-5-4,38,34,31,34,31,30,96,91,83,0.00,40.00,5,3,9,0.44
2013-5-5,46,38,30,30,24,16,92,60,35,0.00,40.00,7,4,10,0.06
2013-5-6,48,38,30,26,21,15,61,51,39,0.00,40.00,6,4,14,0.01
2013-5-7,44,38,32,30,25,20,72,59,48,0.00,40.00,5,2,10,0.00
2013-5-8,53,42,31,34,27,19,79,57,41,0.00,40.00,6,3,11,0.00
2013-5-9,54,44,38,31,25,19,56,47,41,0.00,40.00,5,3,11,0.00
2013-5-10,58,51,42,31,27,22,55,40,29,0.00,40.00,11,4,21,0.00
2013-5-11,54,48,43,38,33,26,66,56,40,0.00,40.00,8,4,17,0.00
2013-5-12,50,45,40,44,39,34,95,80,63,0.00,40.00,7,2,14,0.15
2013-5-13,51,43,35,38,31,13,94,66,32,0.00,40.00,7,5,14,0.28
2013-5-14,45,37,31,22,16,12,51,42,36,0.00,40.00,8,4,12,0.03
2013-5-15,45,39,34,24,20,12,60,47,37,0.00,40.00,13,7,31,0.00
2013-5-16,38,33,32,35,12,-100,95,81,50,0.00,40.00,9,5,27,0.01
2013-5-17,35,33,28,34,26,-100,97,95,91,0.00,40.00,7,4,15,0.42
2013-5-18,40,30,22,28,23,18,94,77,57,0.00,40.00,7,5,16,0.39
2013-5-19,44,35,22,21,15,9,74,46,32,0.00,40.00,6,4,14,0.16
2013-5-20,49,41,31,26,18,9,47,39,30,0.00,40.00,6,4,12,0.00
2013-5-21,50,42,33,34,26,15,69,54,41,0.00,40.00,6,4,11,0.00
2013-5-22,54,44,38,38,30,25,93,59,43,0.00,40.00,6,3,11,0.01
2013-5-23,51,45,39,44,40,37,95,84,67,0.00,40.00,4,2,10,0.05
2013-5-24,64,53,42,42,37,20,76,56,26,0.00,40.00,7,4,10,0.01
2013-5-25,62,56,47,34,26,16,45,32,20,0.00,40.00,12,6,26,0.00
2013-5-26,59,51,40,38,30,15,75,46,22,0.00,40.00,9,3,18,0.00
2013-5-27,71,59,47,42,38,33,66,47,29,0.00,40.00,6,3,12,0.00
2013-5-28,76,60,45,44,40,33,74,49,31,0.00,40.00,5,3,10,0.00
2013-5-29,77,68,57,42,38,34,49,34,22,0.00,40.00,5,3,10,0.00
2013-5-30,69,62,52,45,39,30,64,44,33,0.00,40.00,5,4,10,0.00
2013-5-31,59,53,47,46,42,38,78,66,55,0.00,40.00,7,4,11,0.00
2013-6-1,51,46,42,44,42,41,96,87,76,0.00,40.00,7,3,12,0.00
2013-6-2,54,46,42,46,41,31,97,84,52,0.00,40.00,9,3,17,0.45
2013-6-3,54,48,43,43,38,30,94,70,48,0.00,40.00,9,4,20,0.01
2013-6-4,53,48,42,42,34,29,87,61,45,0.00,40.00,11,6,24,0.00
2013-6-5,58,50,43,37,32,29,60,50,36,0.00,40.00,14,7,24,0.00
2013-6-6,65,55,42,40,33,26,60,45,35,0.00,40.00,14,5,24,0.00
2013-6-7,73,58,46,40,35,30,61,44,25,0.00,40.00,7,4,15,0.00
2013-6-8,69,60,51,46,38,31,60,45,39,0.00,40.00,6,4,12,0.00
2013-6-9,74,64,54,47,40,35,52,42,29,0.00,40.00,5,4,12,0.00
2013-6-10,72,65,55,46,41,35,50,41,33,0.00,40.00,6,4,14,0.00
2013-6-11,70,61,50,48,41,35,64,48,34,0.00,40.00,7,4,14,0.00
2013-6-12,74,65,56,43,37,28,52,37,21,0.00,40.00,6,4,10,0.00
2013-6-13,70,61,56,51,40,30,74,46,30,0.00,40.00,8,5,14,0.01
2013-6-14,70,61,50,47,42,36,61,50,38,0.00,40.00,7,4,14,0.01
2013-6-15,72,63,52,53,45,34,67,53,36,0.00,40.00,6,3,10,0.00
2013-6-16,79,68,57,55,49,34,67,50,34,0.00,40.00,4,3,9,0.00
2013-6-17,81,71,60,52,47,40,54,43,35,0.00,40.00,6,3,9,0.00
2013-6-18,79,72,60,54,44,33,61,40,21,0.00,40.00,12,6,29,0.00
2013-6-19,69,63,53,44,40,35,67,44,31,0.00,40.00,12,6,29,0.00
2013-6-20,63,56,51,51,44,33,80,64,38,0.00,40.00,5,3,16,0.00
2013-6-22,65,58,48,46,36,28,79,47,28,0.00,40.00,9,4,20,0.00
2013-6-23,69,58,51,46,41,29,70,53,36,0.00,40.00,5,3,11,0.00
2013-6-24,71,62,53,53,46,36,76,56,46,0.00,40.00,5,3,10,0.00
2013-6-25,74,64,53,51,47,42,68,55,43,0.00,40.00,7,3,12,0.00
2013-6-26,76,69,60,55,49,42,69,50,33,0.00,40.00,11,5,24,0.00
2013-6-27,70,63,57,57,52,45,82,68,55,0.00,40.00,5,3,11,0.00
2013-6-28,58,54,52,53,52,51,96,92,82,0.00,40.00,4,2,7,0.03
2013-6-29,62,55,51,54,51,49,97,86,68,0.00,40.00,6,2,11,0.01
2013-6-30,60,55,50,52,48,42,95,80,62,0.00,40.00,11,4,29,0.00
2013-7-1,57,52,49,47,41,38,90,66,52,0.00,40.00,10,7,21,0.10
2013-7-2,60,52,47,47,41,36,95,67,47,0.00,40.00,13,6,24,0.01
2013-7-3,58,52,47,46,41,37,88,67,50,0.00,40.00,13,6,24,0.00
2013-7-4,54,51,47,43,40,37,78,68,59,0.00,40.00,10,8,27,0.16
2013-7-5,57,52,47,48,42,39,92,71,54,0.00,40.00,10,6,29,0.01
2013-7-6,60,54,51,47,41,38,77,62,57,0.00,40.00,11,7,31,0.01
2013-7-7,62,54,48,50,47,41,98,80,51,0.00,40.00,10,4,21,0.02
2013-7-8,61,50,44,50,46,42,100,88,65,0.00,40.00,5,3,10,0.12
2013-7-9,65,55,48,51,46,42,95,73,49,0.00,40.00,5,3,11,0.01
2013-7-10,69,60,53,52,44,-100,79,61,46,0.00,40.00,5,4,11,0.01
2013-7-11,72,63,55,58,50,42,75,62,49,0.00,40.00,5,3,10,0.00
2013-7-12,76,65,57,58,50,46,70,59,44,0.00,40.00,7,3,14,0.00
2013-7-13,72,65,58,55,49,45,68,56,46,0.00,40.00,5,3,10,0.00
2013-7-14,64,57,52,54,52,49,97,83,69,0.00,40.00,4,3,10,0.00
2013-7-15,58,53,50,54,50,48,96,89,82,0.00,40.00,4,2,6,0.00
2013-7-16,64,62,58,57,54,52,83,76,67,0.00,40.00,5,3,10,0.00
2013-7-17,67,61,56,58,54,51,89,79,64,0.00,40.00,7,4,13,0.00
2013-7-18,72,64,57,60,56,53,91,74,59,0.00,40.00,11,6,19,0.00
2013-7-19,72,64,58,55,52,48,82,66,52,0.00,40.00,10,6,18,0.00
2013-7-20,69,59,52,55,48,-100,98,70,49,0.00,40.00,7,4,13,0.32
2013-7-21,74,62,52,51,45,40,71,54,35,0.00,40.00,6,4,12,0.02
2013-7-22,76,65,52,54,46,40,73,52,35,0.00,40.00,6,4,12,0.00
2013-7-23,78,68,62,57,47,40,59,47,40,0.00,40.00,7,3,11,0.00
2013-7-24,80,70,59,57,51,44,65,52,43,0.00,40.00,5,3,10,0.00
2013-7-25,77,66,58,60,53,46,95,63,49,0.00,40.00,7,3,12,0.03
2013-7-26,67,60,57,60,57,55,99,91,73,0.00,40.00,4,2,9,0.04
2013-7-27,67,61,56,59,56,53,95,85,72,0.00,40.00,4,2,8,0.01
2013-7-28,74,63,56,61,57,53,95,82,59,0.00,40.00,5,2,9,0.00
2013-7-29,75,66,57,61,58,54,91,76,56,0.00,40.00,5,3,9,0.00
2013-7-30,74,65,55,61,56,53,93,75,56,0.00,40.00,5,3,9,0.00
2013-7-31,72,63,55,59,56,49,98,80,59,0.00,40.00,6,3,9,0.00
2013-8-1,68,60,54,61,54,42,96,82,50,0.00,40.00,5,3,12,0.00
2013-8-2,69,61,54,53,47,42,89,62,47,0.00,40.00,10,5,23,0.00
2013-8-3,66,61,56,47,45,42,66,55,45,0.00,40.00,14,8,33,0.00
2013-8-4,63,58,56,52,46,43,81,64,57,0.00,40.00,13,6,25,0.01
2013-8-5,62,58,52,51,47,43,93,68,51,0.00,40.00,12,5,23,0.02
2013-8-6,62,58,54,49,45,42,81,63,48,0.00,40.00,9,4,22,0.00
2013-8-7,59,56,53,56,49,43,94,80,57,0.00,40.00,6,4,15,0.03
2013-8-8,68,57,51,54,47,37,97,72,43,0.00,40.00,11,5,26,0.01
2013-8-9,56,51,47,51,46,38,99,84,56,0.00,40.00,15,7,34,0.55
2013-8-10,59,54,49,55,51,44,98,88,64,0.00,40.00,9,4,29,0.39
2013-8-11,54,53,52,54,52,49,100,96,86,0.00,40.00,5,3,9,0.60
2013-8-12,68,59,53,62,56,53,100,92,74,0.00,40.00,4,2,8,0.27
2013-8-13,70,58,52,60,53,-100,99,88,57,0.00,40.00,6,3,11,0.01
2013-8-14,54,51,49,52,48,-100,100,92,82,0.00,40.00,3,2,6,0.00
2013-8-15,67,51,47,53,36,-100,99,76,59,0.00,40.00,4,2,9,0.00
2013-8-16,56,52,49,53,46,-100,96,88,82,0.00,40.00,3,2,5,0.02
2013-8-17,64,56,51,54,51,48,97,83,68,0.00,40.00,4,2,7,0.04
2013-8-18,58,55,52,56,52,43,99,90,63,0.00,40.00,10,3,22,0.55
2013-8-21,55,52,49,52,46,43,99,80,69,0.00,40.00,8,5,20,0.21
2013-8-22,53,51,49,52,49,46,98,93,84,0.00,40.00,5,3,16,0.41
2013-8-23,65,56,51,56,51,46,97,84,67,0.00,40.00,6,4,13,0.03
2013-8-24,65,54,47,51,48,41,99,81,56,0.00,40.00,5,3,10,0.13
2013-8-25,65,54,44,51,43,37,83,67,50,0.00,40.00,5,3,9,0.00
2013-8-26,65,56,49,48,42,36,74,60,48,0.00,40.00,5,3,10,0.00
2013-8-27,56,54,52,50,43,40,81,66,55,0.00,40.00,3,2,5,0.00
2013-8-28,61,54,49,51,48,42,98,81,65,0.00,40.00,6,3,11,0.37
2013-8-29,54,50,48,52,49,47,99,96,92,0.00,40.00,4,2,10,0.28
2013-8-30,57,53,50,54,49,43,93,86,70,0.00,40.00,6,3,10,0.01
2013-8-31,55,53,50,50,46,39,89,79,61,0.00,40.00,7,5,18,0.04
2013-9-1,55,51,48,51,48,45,98,91,81,0.00,40.00,4,2,9,0.09
2013-9-2,59,56,54,48,46,43,79,69,56,0.00,40.00,0,0,0,0.70
2013-9-3,63,56,50,52,43,39,96,63,52,0.00,40.00,0,0,0,0.47
2013-9-4,54,50,47,50,45,40,99,87,59,0.00,40.00,2,0,15,0.59
2013-9-5,58,52,47,40,38,36,73,60,49,0.00,40.00,1,0,3,0.01
2013-9-6,59,49,45,50,44,38,98,84,52,0.00,40.00,1,0,2,0.16
2013-9-7,57,50,46,52,48,44,99,91,79,0.00,40.00,3,0,7,0.06
2013-9-17,47,45,43,46,42,37,98,88,71,0.00,40.00,3,1,6,0.18
2013-9-18,44,43,42,43,41,39,98,95,89,0.00,40.00,4,1,11,0.17
2013-9-19,48,41,35,41,35,27,99,81,49,0.00,40.00,6,4,15,0.26
2013-9-20,45,35,27,26,23,20,83,63,39,0.00,40.00,5,3,12,0.01
2013-9-21,44,39,34,35,27,20,86,62,50,0.00,40.00,8,3,19,0.03
2013-9-22,39,34,31,34,30,25,95,86,69,0.00,40.00,7,5,19,0.09
2013-9-23,38,32,29,31,29,27,96,88,74,0.00,40.00,7,4,15,0.22
2013-9-24,51,36,29,40,30,25,95,79,65,0.00,40.00,10,3,26,0.01
2013-9-25,53,47,40,43,38,36,98,73,57,0.00,40.00,19,10,50,1.25
2013-9-26,49,45,42,45,40,34,98,84,63,0.00,40.00,10,3,26,0.26
2013-9-27,48,44,41,41,38,34,89,80,61,0.00,40.00,7,3,22,0.01
2013-9-28,53,43,37,38,35,28,93,74,53,0.00,40.00,6,2,12,0.00
2013-9-29,47,40,33,32,28,24,75,65,52,0.00,40.00,5,2,11,0.00
2013-9-30,50,40,34,31,28,24,75,61,45,0.00,40.00,4,2,11,0.00
2013-10-3,45,42,39,39,38,35,97,85,76,0.00,40.00,4,2,7,0.01
2013-10-4,53,45,41,38,35,31,78,66,51,0.00,40.00,5,3,8,0.00
2013-10-5,47,41,37,41,35,29,96,78,59,0.00,40.00,5,2,9,0.00
2013-10-6,42,39,38,39,37,35,98,91,75,0.00,40.00,11,4,20,0.29
2013-10-7,46,41,38,38,35,28,94,81,54,0.00,40.00,9,5,30,0.04
2013-10-8,44,41,37,36,35,33,93,79,65,0.00,40.00,24,16,54,1.43
2013-10-9,48,40,37,37,31,19,97,71,49,0.00,40.00,11,9,24,0.17
2013-10-17,52,49,45,41,34,27,79,56,41,0.00,40.00,18,11,39,0.05
2013-10-18,49,46,44,36,31,27,70,55,42,0.00,40.00,22,13,47,0.10
2013-10-19,48,46,45,35,30,26,65,53,43,0.00,40.00,20,14,51,0.01
2013-10-20,47,44,42,32,28,25,61,53,47,0.00,40.00,17,10,32,0.00
2013-10-21,45,41,37,30,28,25,70,58,49,0.00,40.00,11,6,27,0.00
2013-10-22,43,39,34,33,29,26,78,69,55,0.00,40.00,13,4,22,0.00
2013-10-23,38,31,26,28,24,19,96,76,58,0.00,40.00,5,2,9,0.00
2013-10-24,42,34,28,30,22,10,84,62,28,0.00,40.00,14,6,39,0.01
2013-10-25,47,41,37,32,29,25,77,61,52,0.00,40.00,14,5,31,0.01
2013-10-26,45,38,35,33,30,23,80,71,53,0.00,40.00,10,3,19,0.00
2013-10-27,50,41,33,37,30,14,97,68,23,0.00,40.00,23,11,62,0.73
2013-10-28,53,47,42,41,35,-100,94,68,53,0.00,40.00,39,17,74,1.20
2013-10-29,47,43,37,33,28,25,83,57,49,0.00,40.00,16,9,27,0.01
2013-10-30,42,39,36,33,31,30,83,74,63,0.00,40.00,4,3,10,0.00
2013-10-31,39,38,37,37,35,31,98,90,77,0.00,40.00,4,2,10,0.16
2013-11-1,39,37,36,37,36,34,99,96,91,0.00,40.00,6,2,10,0.13
2013-11-2,40,37,33,38,33,25,99,88,54,0.00,40.00,14,6,29,0.03
2013-11-3,44,41,35,29,26,20,80,56,45,0.00,40.00,14,9,34,0.01
2013-11-4,40,36,33,32,29,26,82,74,65,0.00,40.00,5,2,8,0.00
2013-11-5,37,32,26,29,22,13,82,65,53,0.00,40.00,5,3,15,0.00
2013-11-6,30,25,20,18,15,11,78,66,57,0.00,40.00,6,3,12,0.00
2013-11-7,38,28,22,20,16,14,77,61,46,0.00,40.00,6,3,9,0.00
2013-11-8,31,24,19,18,11,6,76,58,41,0.00,40.00,6,2,11,0.00
2013-11-9,45,32,26,38,22,8,97,70,42,0.00,40.00,15,5,31,0.04
2013-11-10,42,34,28,34,30,27,97,85,73,0.00,40.00,16,9,31,0.51
2013-11-11,28,23,15,27,20,11,96,92,86,0.00,40.00,5,3,12,0.01
2013-11-12,20,15,12,14,10,7,87,79,66,0.00,40.00,5,3,11,0.05
2013-11-13,32,24,18,27,18,8,93,79,60,0.00,40.00,8,3,14,0.02
2013-11-14,42,35,27,37,30,14,97,83,51,0.00,40.00,15,6,35,0.17
2013-11-15,31,28,22,16,12,7,63,51,37,0.00,40.00,9,5,20,0.03
2013-11-16,21,18,13,13,5,0,72,55,44,0.00,40.00,10,6,22,0.00
2013-11-17,13,9,5,1,-1,-3,78,64,51,0.00,40.00,9,6,20,0.00
2013-11-18,12,5,2,-3,-8,-13,71,56,42,0.00,40.00,6,4,14,0.00
2013-11-19,11,4,1,2,-11,-17,83,49,31,0.00,40.00,5,3,9,0.00
2013-11-20,11,4,0,-7,-10,-14,62,52,40,0.00,40.00,6,3,10,0.00
2013-11-21,12,3,-1,9,-7,-16,87,63,44,0.00,40.00,16,8,32,0.00
2013-11-22,35,25,13,32,22,7,97,86,58,0.00,40.00,16,8,30,0.08
2013-11-23,33,25,18,14,9,-1,74,51,35,0.00,40.00,17,11,31,0.01
2013-11-24,38,35,31,27,22,12,70,59,41,0.00,40.00,13,7,26,0.02
2013-11-25,34,30,26,24,22,19,78,71,64,0.00,40.00,4,2,9,0.01
2013-11-26,30,28,26,27,23,18,95,80,67,0.00,40.00,3,1,6,0.00
2013-11-27,27,24,19,26,21,4,96,88,50,0.00,40.00,12,3,28,0.00
2013-11-28,18,11,6,4,-4,-11,74,51,41,0.00,40.00,10,7,21,0.00
2013-11-29,9,4,-1,-2,-8,-13,80,59,38,0.00,40.00,8,3,18,0.00
2013-11-30,7,1,-5,-6,-10,-14,78,58,40,0.00,40.00,6,3,17,0.00
2013-12-1,17,10,2,0,-7,-12,77,47,35,0.00,40.00,4,3,8,0.00
2013-12-2,31,21,13,8,1,-7,50,40,29,0.00,40.00,4,2,7,0.04
2013-12-3,33,27,22,23,11,0,85,53,25,0.00,40.00,6,2,11,0.01
2013-12-12,11,9,7,6,3,1,82,75,65,0.00,40.00,0,0,0,0.00
2013-12-13,18,12,10,13,8,6,88,84,76,0.00,40.00,0,0,0,0.00
2013-12-14,20,16,13,18,13,10,91,89,88,0.00,40.00,0,0,0,0.00
2013-12-15,15,10,4,12,7,-1,89,86,81,0.00,40.00,0,0,0,0.00
2013-12-16,7,2,-1,3,-2,-6,82,80,79,0.00,40.00,0,0,0,0.00
2013-12-17,6,1,-2,0,-5,-7,80,78,74,0.00,40.00,0,0,0,0.00
2013-12-18,18,7,0,12,2,-5,88,80,75,0.00,40.00,0,0,0,0.00
2013-12-19,23,19,9,21,16,5,93,90,84,0.00,40.00,0,0,0,0.00
2013-12-20,28,24,19,25,21,17,95,89,79,0.00,40.00,0,0,0,0.00
2013-12-21,35,32,27,29,28,26,94,83,68,0.00,40.00,10,4,25,0.08
2013-12-22,34,26,18,32,23,5,98,87,53,0.00,40.00,9,3,20,0.01
2013-12-23,18,14,7,7,-2,-7,68,47,38,0.00,40.00,10,5,23,0.00
2013-12-24,14,9,5,6,-4,-12,73,57,42,0.00,40.00,3,1,7,0.00
2013-12-25,13,7,1,1,-3,-6,81,66,53,0.00,40.00,1,0,5,0.00
2013-12-26,17,9,5,5,0,-7,87,67,44,0.00,40.00,2,0,4,0.00
2013-12-28,28,22,12,24,16,5,89,80,70,0.00,40.00,5,1,17,0.00
2013-12-29,33,26,21,23,20,16,90,80,62,0.00,40.00,3,1,7,0.00
2013-12-30,32,28,24,25,22,19,91,77,60,0.00,40.00,4,2,8,0.00
2013-12-31,38,29,21,28,21,16,88,71,63,0.00,40.00,14,5,26,0.00
2014-1-1,41,36,25,30,25,16,96,63,52,0.00,40.00,13,8,36,0.42
2014-1-2,31,29,26,30,27,23,97,93,86,0.00,40.00,5,3,12,0.03